SL-16 DEB

Satellite information

Favourite Embed

Satellite Type and Status

DEBRISIN ORBIT

Key statistics

Satellite SL-16 DEB at a glance.

Uptime

11903

Days in orbit

Revolutions

≈ 14.4

Per day

Orbit

LEO

Low Earth Orbit

Inclination

71.0

Latest

Satellite identification and parameters

Extended collection of information and parameters for SL-16 DEB.

Object identification

Identified? True

Debris? True

Object name: SL-16 DEB

International designator: 1993-016BR

Object number (NORAD): 39891

Object ID (CCSDS): 39891

Country: COMMONWEALTH OF INDEPENDENT STATES (CIS)

Current information (Y/N): Y

RCS size: SMALL

Orbital parameters

Period: 99.776 minutes

Inclination: 70.9995 deg

SMA: 7125.97 km

Apoapsis: 755.878 km

Periapsis: 739.792 km

RAAN: 43.4085 deg

Eccentricy: 0.0011287

Argument of periapsis: 242.7309 deg

Mean anomaly: 117.268 deg

Mean motion: 14.4323416 rev/day

Mean motion (dot): 0.00003957 rev/day2

B* drag term: 0.0011889671 1/REarth

Two-line elements (TLE)

Creation date: Oct. 14, 2025, 5:26 p.m.

Reference frame: TEME

Reference center: EARTH

Epoch: Oct. 14, 2025, 1:33 a.m. UTC

TLE line 0: 0 SL-16 DEB

TLE line 1: 1 39891U 93016BR 25287.06468561 .00003957 00000-0 11890-2 0 9994

TLE line 2: 2 39891 70.9995 43.4085 0011287 242.7309 117.2680 14.43234160594709

Live tracking on map

Real-time ground track for satellite SL-16 DEB.

In-orbit conjunctions

A list of the most updated potential collisions computed for object SL-16 DEB.

Target Orbit TCA Probability of collision Miss distance Type
METEOR 2-8 DEB LEO 2025-09-10 03:21:12 0.0004785505 227.0 (m) DEBRIS
ARIANE 1 DEB SSO 2025-07-27 20:45:28 0.0001669925 374.0 (m) DEBRIS
SL-8 R/B LEO 2025-05-04 09:24:26 0.0004761029 170.0 (m) ROCKET BODY
COSMOS 2251 DEB LEO 2024-09-25 12:02:03 0.0001624051 836.0 (m) DEBRIS

Associated space launch

Second generation ELING satellite

SL-16 DEB was lifted into orbit during the mission ‘Zenit-2 | Tselina-2 13’, on board a Zenit-2 space rocket.

The launch took place on March 26, 1993, 2:21 a.m. from 45/1.

For more information about the launch, click the button.

Launch to space Zenit-2 | Tselina-2 13
Zenit-2 | Tselina-2 13

Agency: N/A

Status: Launch Successful

Launch date: March 26, 1993, 2:21 a.m. UTC

Rocket: Zenit-2

Launch pad: 45/1

Location: Baikonur Cosmodrome, Republic of Kazakhstan

...

Latest news about this satellite

There are no fresh news available about this satellite. Check back as we update our databases every day.


Newsletter sign-up

Weekly statistics, charts and insights to help you stay on top of the space industry.